Dewpoint
28 29 26 22 22 27 25 24 22 22 24 24 31 34 35 36 36 35 35 34 33 33 33 32 30 26 24 24 25 26 25 31 32 34 35 35 35 35 35 36 36 34 30 27
28 30 29 26 23 24 25 25 27 26 25 29 35 36 36 36 36 35 34 33 33 33 32 30 25 21 21 21 23 25 25 32 34 34 34 33 34 34 35 35 33 35 29 26
16 26 22 17 23 26 26 27 25 24 26 35 35 35 36 36 35 35 33 32 31 32 30 25 21 20 19 20 23 24 26 32 33 33 33 33 33 34 33 34 34 29 25 25
17 18 7 19 27 28 27 27 28 31 32 35 35 35 36 36 35 35 33 32 32 30 23 22 20 19 20 20 22 23 30 31 32 32 32 33 33 33 31 29 29 25 25 25
15 17 16 15 23 28 27 25 33 32 34 35 36 35 35 36 35 35 34 33 29 22 21 21 18 19 20 21 22 29 29 31 31 31 31 30 30 31 31 31 28 26 25 24
20 9 4 16 26 31 29 25 32 35 35 35 35 31 34 35 35 34 32 24 19 19 19 18 19 20 21 22 25 27 29 30 30 30 29 28 28 28 29 26 26 25 23 23
14 12 20 22 31 31 22 23 36 36 36 36 34 35 35 35 34 33 22 18 19 19 19 20 21 22 23 24 25 27 29 29 29 28 27 27 25 25 25 26 24 24 22 23
22 13 18 28 32 27 30 32 37 37 37 36 36 36 36 34 27 19 17 19 20 20 21 22 24 24 24 25 26 27 28 29 28 27 27 26 23 25 25 23 22 21 9 16
26 26 28 30 33 34 33 33 37 37 38 38 37 38 37 26 21 21 17 18 20 20 23 24 26 26 26 27 29 29 28 28 27 28 27 26 23 23 22 22 19 19 21 15
28 28 31 32 33 35 36 36 38 39 39 39 38 39 29 27 25 20 18 20 21 23 24 25 27 28 29 29 29 29 28 28 28 27 26 26 24 23 23 19 20 21 20 18
30 32 33 34 37 35 38 40 40 41 40 39 38 33 29 23 21 20 20 23 23 24 26 26 27 29 28 28 29 28 28 28 28 28 28 26 22 23 24 23 23 21 19 17
28 30 31 31 35 40 40 40 40 40 38 31 31 24 25 24 22 22 23 24 24 26 27 27 29 28 28 29 29 29 29 29 30 30 29 27 24 24 26 26 26 27 27 17
31 34 35 36 39 40 40 40 39 33 27 24 24 26 25 23 24 26 24 24 26 27 27 29 28 28 28 28 28 28 29 30 30 29 29 26 24 24 19 21 26 27 27 27
39 39 37 38 38 41 40 32 27 24 24 26 29 26 24 24 26 25 25 27 28 28 28 29 28 27 27 27 28 29 30 29 30 29 28 28 27 25 21 17 15 15 21 24
40 39 38 39 39 27 25 24 27 30 32 30 27 26 25 25 24 27 28 28 28 28 28 27 26 26 26 27 28 30 31 31 29 27 27 25 22 23 20 16 19 17 14 17
39 39 37 30 26 29 32 34 33 32 29 28 26 26 26 28 28 27 28 29 27 27 27 23 23 26 27 28 29 30 32 31 29 26 24 24 24 20 20 21 22 18 16 14
36 32 31 33 34 34 35 35 33 31 31 28 25 26 27 27 26 27 28 26 22 22 23 23 25 27 27 29 30 31 31 31 28 27 25 24 24 20 19 23 22 23 17 8
35 35 35 34 33 33 32 33 32 28 26 27 26 24 22 22 24 24 22 21 17 21 24 26 26 27 27 29 30 29 29 30 29 27 27 25 26 21 17 18 19 20 19 13
34 34 35 35 34 32 27 24 24 27 26 26 24 25 23 23 24 24 21 20 20 21 26 26 26 25 27 29 28 27 29 29 29 27 26 24 11 14 13 13 15 16 17 17
32 32 31 28 27 27 28 28 27 28 28 26 21 22 25 26 27 22 18 22 26 27 27 26 25 25 26 29 29 28 29 30 29 26 23 21 16 14 13 12 15 17 18 17
27 26 26 27 27 27 26 26 24 26 27 21 21 26 28 29 29 27 24 25 27 24 25 23 24 26 27 27 30 30 31 30 29 24 22 20 19 17 17 17 18 19 21 21
26 26 22 22 24 25 25 26 26 21 20 18 15 18 24 28 27 25 25 25 28 22 26 24 25 23 25 24 29 30 30 29 30 28 23 23 24 23 22 22 22 22 23 22
29 28 26 24 21 26 26 24 20 20 21 22 22 22 21 25 24 24 25 25 24 24 24 22 20 23 27 28 28 29 29 29 28 29 28 27 27 26 26 26 26 26 25 25
26 27 27 27 24 25 26 28 28 28 22 24 23 21 21 24 26 24 28 28 27 28 23 22 21 23 20 27 27 28 28 29 29 29 29 29 28 27 27 27 26 26 26 26
27 28 27 26 27 27 28 28 26 26 27 28 29 26 24 23 25 28 28 28 29 26 24 22 22 22 27 26 25 23 23 25 26 26 28 29 29 28 27 27 27 27 27 26
27 27 27 27 26 26 25 24 24 24 25 25 26 28 27 25 24 26 29 29 28 26 25 24 19 13 12 13 13 13 15 16 18 20 22 25 28 29 28 28 27 27 27 28
25 23 22 22 21 21 20 20 21 21 23 23 24 26 27 28 29 29 30 29 22 18 21 16 11 12 12 11 11 11 12 13 13 12 13 14 15 20 28 29 29 29 29 27
Lifted_Index
3 3 3 3 3 3 3 3 3 3 4 5 5 4 4 3 3 3 3 4 4 5 5 6 8 10 11 11 11 12 12 13 13 13 13 13 13 13 12 11 10 9 8 7
3 3 3 3 3 3 3 3 3 4 4 5 5 4 4 4 3 3 3 4 4 5 5 7 9 10 11 11 11 12 13 13 13 13 13 13 13 13 12 10 9 8 7 7
3 3 3 3 3 3 3 4 4 4 4 5 5 4 4 4 3 3 4 4 4 5 6 8 9 10 11 11 12 12 13 13 13 13 13 13 13 12 11 10 9 8 7 6
2 2 3 3 3 4 3 4 4 4 4 5 5 4 4 4 4 3 4 4 5 6 7 9 10 10 11 11 12 13 13 13 13 13 13 13 12 11 10 9 8 7 6 6
2 2 3 3 4 4 4 4 4 4 4 5 5 4 4 4 4 4 4 4 5 7 8 9 10 11 11 12 13 13 13 13 13 13 13 12 11 10 9 8 7 7 6 6
3 3 3 4 4 4 4 4 4 4 4 5 5 5 4 4 3 3 4 5 6 8 9 10 10 11 12 13 13 13 13 13 13 12 12 11 10 9 8 7 7 6 6 6
4 3 4 5 5 4 4 4 5 5 4 5 5 4 4 3 3 3 4 6 7 8 9 10 11 12 13 13 13 13 13 12 12 12 11 10 9 8 8 7 7 6 6 6
4 4 4 5 5 4 4 5 5 5 4 4 4 4 3 3 3 4 5 7 8 9 9 11 12 13 13 13 13 12 12 12 12 11 10 9 8 8 7 7 7 7 6 6
5 4 5 5 5 4 4 4 4 4 4 3 3 3 3 3 3 5 6 8 9 9 10 12 13 14 13 13 13 12 12 12 11 10 9 8 8 7 7 7 7 7 7 7
5 5 5 5 5 4 4 4 4 3 3 3 2 2 2 3 4 6 7 8 9 10 11 12 13 14 13 13 13 12 12 11 10 9 8 7 7 7 7 7 7 7 7 7
5 4 4 4 4 4 4 3 3 3 3 2 2 2 3 4 6 7 8 9 10 11 12 13 14 14 13 13 12 12 11 10 10 9 8 7 6 7 7 7 7 7 7 7
4 4 4 4 4 3 3 3 3 3 2 2 2 3 4 6 8 9 9 10 11 12 13 13 13 13 13 12 12 11 10 10 9 8 7 7 6 6 6 7 7 8 8 8
4 4 3 3 3 3 3 3 2 2 2 2 3 4 6 8 9 10 10 11 12 13 13 13 13 12 12 11 11 10 10 9 8 8 7 6 6 6 6 7 7 8 8 8
3 3 3 3 2 2 2 2 2 2 3 4 5 7 9 9 10 11 12 13 13 14 13 13 12 11 11 11 10 10 9 9 8 7 6 6 6 6 6 6 7 7 8 8
2 2 2 2 2 2 2 2 2 3 4 6 8 9 10 10 11 12 13 13 13 13 12 12 11 10 10 10 10 9 9 8 7 6 6 5 5 6 6 7 7 7 7 8
2 2 2 2 2 2 3 3 4 5 7 8 9 10 11 11 12 13 13 13 13 12 11 11 10 10 9 9 9 9 8 7 6 6 5 5 5 6 6 7 7 7 7 7
3 3 3 3 3 3 4 5 7 8 9 10 10 11 12 12 13 13 12 12 11 11 10 10 9 9 8 8 8 8 7 7 6 6 5 5 5 6 6 6 6 7 7 8
4 4 4 5 5 6 7 8 9 10 10 10 11 11 12 12 12 12 11 10 10 10 9 8 8 7 7 8 8 8 7 7 6 5 5 5 5 6 6 6 6 6 7 8
6 6 7 7 8 8 9 9 10 11 11 11 11 11 12 11 11 10 10 9 8 8 8 7 7 6 7 7 8 7 7 6 6 5 5 5 5 5 6 6 5 6 7 7
9 9 9 9 10 10 10 10 11 11 11 11 11 11 10 10 9 9 8 8 7 6 6 6 6 6 6 7 7 7 7 6 6 5 5 4 5 5 5 5 5 5 6 6
9 9 9 10 10 11 11 11 11 11 10 10 10 9 9 8 8 7 7 6 6 5 5 5 5 5 6 7 7 7 6 6 6 5 5 4 4 5 5 5 5 5 5 5
9 9 9 10 10 10 10 10 10 9 9 9 9 8 8 7 7 6 6 6 5 5 5 5 5 6 6 7 7 7 6 6 5 5 5 4 4 4 4 4 4 4 4 4
9 9 9 9 9 9 9 9 8 8 8 8 7 7 6 6 6 6 6 6 6 5 6 6 6 7 7 8 7 7 6 6 5 5 5 5 5 5 4 4 4 4 4 4
9 9 9 8 8 7 7 7 7 7 7 7 7 6 6 6 6 6 6 6 6 6 6 6 7 8 8 8 8 7 6 6 6 6 6 5 5 5 5 5 5 5 4 4
7 7 7 7 7 7 7 7 7 7 7 7 7 7 6 6 6 6 7 7 6 6 6 7 8 8 8 8 8 7 7 7 6 6 6 6 6 6 5 5 5 5 5 5
7 7 7 7 7 7 7 8 8 8 8 8 8 8 8 7 7 7 7 7 7 7 7 7 8 8 8 8 8 8 7 7 7 6 6 6 6 6 6 5 5 5 5 5
7 7 7 7 7 8 8 8 8 8 8 8 8 8 8 8 8 7 7 7 7 7 7 7 8 8 8 8 8 8 8 7 7 6 6 6 5 6 6 5 5 5 5 5